GLO1590 SBGR-SBJE

Flight info

Callsign GLO1590
Flight time 2h 55m
Altitude 37000
Route NUXEL UZ23 UTLEV UZ88 DABDO DCT ISOTI DCT ILBEM
Aircraft B38M/M-SDE1FGHILORVWXY/HB1

Departure

Time 2026-05-05 11:11
Airport São Paulo/Guarulhos–Governor André Franco Montoro International Airport (SBGR)

Arrival

Time 2026-05-05 14:07
Airport Comandante Ariston Pessoa Airport (SBJE)
Time Latitude Longitude Altitude Speed Heading
2026-05-05 10:53 -23.42774 -46.48543 2447 ft 0 kts 274°
2026-05-05 11:04 -23.42775 -46.48527 2448 ft 2 kts 274°
2026-05-05 11:04 -23.42776 -46.48511 2448 ft 2 kts 274°
2026-05-05 11:04 -23.42777 -46.48499 2448 ft 0 kts 274°
2026-05-05 11:05 -23.42776 -46.48484 2448 ft 2 kts 249°
2026-05-05 11:05 -23.42769 -46.48470 2448 ft 2 kts 226°
2026-05-05 11:05 -23.42764 -46.48465 2448 ft 0 kts 214°
2026-05-05 11:05 -23.42779 -46.48473 2448 ft 4 kts 191°
2026-05-05 11:06 -23.42792 -46.48474 2448 ft 0 kts 179°
2026-05-05 11:07 -23.42805 -46.48474 2448 ft 6 kts 179°
2026-05-05 11:08 -23.42872 -46.48473 2447 ft 10 kts 174°
2026-05-05 11:08 -23.42939 -46.48454 2446 ft 9 kts 164°
2026-05-05 11:08 -23.43005 -46.48452 2445 ft 9 kts 182°
2026-05-05 11:08 -23.43064 -46.48442 2445 ft 8 kts 163°
2026-05-05 11:09 -23.43121 -46.48424 2445 ft 8 kts 163°
2026-05-05 11:09 -23.43184 -46.48404 2446 ft 9 kts 164°
2026-05-05 11:09 -23.43245 -46.48386 2447 ft 8 kts 163°
2026-05-05 11:09 -23.43302 -46.48368 2449 ft 8 kts 163°
2026-05-05 11:10 -23.43354 -46.48351 2450 ft 7 kts 162°
2026-05-05 11:10 -23.43401 -46.48334 2451 ft 6 kts 155°
2026-05-05 11:10 -23.43416 -46.48294 2452 ft 7 kts 83°
2026-05-05 11:10 -23.43369 -46.48112 2453 ft 55 kts 73°
2026-05-05 11:11 -23.43197 -46.47477 2452 ft 117 kts 74°
2026-05-05 11:11 -23.42912 -46.46423 2458 ft 167 kts 73°
2026-05-05 11:11 -23.42580 -46.45163 2830 ft 181 kts 74°
2026-05-05 11:11 -23.42260 -46.43818 3411 ft 191 kts 74°
2026-05-05 11:12 -23.41831 -46.42375 3878 ft 209 kts 69°
2026-05-05 11:12 -23.41318 -46.40871 4375 ft 218 kts 70°
2026-05-05 11:12 -23.40813 -46.39274 4735 ft 230 kts 71°
2026-05-05 11:12 -23.40310 -46.37543 5053 ft 247 kts 72°
2026-05-05 11:13 -23.39732 -46.35737 5357 ft 264 kts 65°
2026-05-05 11:13 -23.38837 -46.33952 5829 ft 273 kts 56°
2026-05-05 11:13 -23.37754 -46.32223 6441 ft 277 kts 54°
2026-05-05 11:13 -23.36668 -46.30500 7042 ft 281 kts 56°
2026-05-05 11:14 -23.35584 -46.28687 7644 ft 285 kts 57°
2026-05-05 11:14 -23.34534 -46.26882 8291 ft 286 kts 58°
2026-05-05 11:14 -23.33473 -46.25047 8866 ft 290 kts 58°
2026-05-05 11:14 -23.32398 -46.23187 9437 ft 294 kts 59°
2026-05-05 11:15 -23.31303 -46.21298 10008 ft 297 kts 58°
2026-05-05 11:15 -23.30196 -46.19389 10506 ft 303 kts 58°
2026-05-05 11:15 -23.29040 -46.17396 10677 ft 321 kts 58°
2026-05-05 11:15 -23.27808 -46.15273 10820 ft 339 kts 58°
2026-05-05 11:16 -23.26525 -46.13065 10924 ft 357 kts 58°
2026-05-05 11:16 -23.25184 -46.10759 11260 ft 366 kts 58°
2026-05-05 11:16 -23.23804 -46.08389 11708 ft 371 kts 58°
2026-05-05 11:16 -23.22379 -46.06051 12209 ft 375 kts 54°
2026-05-05 11:17 -23.20638 -46.03950 12666 ft 379 kts 39°
2026-05-05 11:17 -23.18369 -46.02472 13225 ft 380 kts 23°
2026-05-05 11:17 -23.15873 -46.01484 13640 ft 384 kts 17°
2026-05-05 11:17 -23.13295 -46.00652 14074 ft 387 kts 15°
2026-05-05 11:18 -23.10646 -46.00005 14444 ft 391 kts
2026-05-05 11:18 -23.07972 -45.99659 14924 ft 391 kts
2026-05-05 11:18 -23.05214 -45.99450 15326 ft 396 kts
2026-05-05 11:18 -23.02473 -45.99262 15681 ft 400 kts
2026-05-05 11:19 -22.99677 -45.99027 16122 ft 402 kts
2026-05-05 11:19 -22.96886 -45.98741 16527 ft 405 kts
2026-05-05 11:19 -22.94093 -45.98420 16951 ft 406 kts
2026-05-05 11:19 -22.91241 -45.98072 17289 ft 410 kts
2026-05-05 11:20 -22.88428 -45.97699 17647 ft 413 kts
2026-05-05 11:20 -22.85565 -45.97153 18025 ft 415 kts 11°
2026-05-05 11:20 -22.82725 -45.96447 18373 ft 418 kts 13°
2026-05-05 11:20 -22.79916 -45.95668 18713 ft 421 kts 14°
2026-05-05 11:21 -22.77061 -45.94857 19013 ft 424 kts 14°
2026-05-05 11:21 -22.74166 -45.94049 19344 ft 427 kts 14°
2026-05-05 11:21 -22.71300 -45.93272 19770 ft 427 kts 13°
2026-05-05 11:21 -22.68421 -45.92511 20037 ft 431 kts 13°
2026-05-05 11:22 -22.65480 -45.91747 20311 ft 434 kts 13°
2026-05-05 11:22 -22.62555 -45.90993 20693 ft 435 kts 13°
2026-05-05 11:22 -22.59592 -45.90232 21035 ft 436 kts 13°
2026-05-05 11:22 -22.56626 -45.89471 21341 ft 439 kts 13°
2026-05-05 11:23 -22.53613 -45.88697 21603 ft 442 kts 13°
2026-05-05 11:23 -22.50631 -45.87931 21912 ft 444 kts 13°
2026-05-05 11:23 -22.47604 -45.87154 22228 ft 445 kts 13°
2026-05-05 11:23 -22.44562 -45.86372 22482 ft 449 kts 13°
2026-05-05 11:24 -22.41506 -45.85588 22787 ft 451 kts 13°
2026-05-05 11:24 -22.38455 -45.84805 23106 ft 452 kts 13°
2026-05-05 11:24 -22.35422 -45.84027 23439 ft 453 kts 13°
2026-05-05 11:24 -22.32313 -45.83196 23610 ft 458 kts 15°
2026-05-05 11:25 -22.29289 -45.82123 23928 ft 459 kts 22°
2026-05-05 11:25 -22.26429 -45.80593 24191 ft 461 kts 32°
2026-05-05 11:25 -22.23769 -45.78664 24479 ft 462 kts 37°
2026-05-05 11:25 -22.21207 -45.76519 24751 ft 464 kts 39°
2026-05-05 11:26 -22.18708 -45.74299 24987 ft 467 kts 40°
2026-05-05 11:26 -22.16245 -45.72079 25381 ft 466 kts 40°
2026-05-05 11:26 -22.13724 -45.69814 25569 ft 470 kts 40°
2026-05-05 11:26 -22.11200 -45.67567 25823 ft 472 kts 40°
2026-05-05 11:27 -22.08658 -45.65326 26041 ft 475 kts 39°
2026-05-05 11:27 -22.06100 -45.63089 26302 ft 476 kts 39°
2026-05-05 11:27 -22.03528 -45.60854 26543 ft 478 kts 39°
2026-05-05 11:27 -22.00903 -45.58581 26776 ft 480 kts 39°
2026-05-05 11:28 -21.98324 -45.56355 26969 ft 483 kts 39°
2026-05-05 11:28 -21.95664 -45.54064 27268 ft 483 kts 39°
2026-05-05 11:28 -21.93042 -45.51808 27489 ft 485 kts 39°
2026-05-05 11:28 -21.90403 -45.49540 27703 ft 488 kts 39°
2026-05-05 11:29 -21.87756 -45.47266 27935 ft 489 kts 39°
2026-05-05 11:29 -21.85084 -45.44972 28161 ft 491 kts 38°
2026-05-05 11:29 -21.82390 -45.42660 28365 ft 493 kts 38°
2026-05-05 11:29 -21.79713 -45.40364 28587 ft 494 kts 39°
2026-05-05 11:30 -21.77042 -45.38073 28739 ft 497 kts 38°
2026-05-05 11:30 -21.74302 -45.35725 28977 ft 498 kts 38°
2026-05-05 11:30 -21.71600 -45.33410 29225 ft 499 kts 38°
2026-05-05 11:30 -21.68876 -45.31077 29465 ft 499 kts 38°
2026-05-05 11:31 -21.66161 -45.28753 29760 ft 499 kts 38°
2026-05-05 11:31 -21.63425 -45.26413 30042 ft 498 kts 38°
2026-05-05 11:31 -21.60714 -45.24095 30333 ft 497 kts 38°
2026-05-05 11:31 -21.57997 -45.21774 30628 ft 496 kts 38°
2026-05-05 11:32 -21.55297 -45.19466 30915 ft 495 kts 38°
2026-05-05 11:32 -21.52593 -45.17159 31075 ft 497 kts 38°
2026-05-05 11:32 -21.49882 -45.14845 31376 ft 496 kts 38°
2026-05-05 11:32 -21.47193 -45.12552 31613 ft 496 kts 38°
2026-05-05 11:33 -21.44492 -45.10250 31916 ft 495 kts 38°
2026-05-05 11:33 -21.41796 -45.07953 32210 ft 493 kts 38°
2026-05-05 11:33 -21.39111 -45.05667 32432 ft 493 kts 38°
2026-05-05 11:33 -21.36436 -45.03390 32634 ft 494 kts 38°
2026-05-05 11:34 -21.33740 -45.01096 32804 ft 495 kts 38°
2026-05-05 11:34 -21.31025 -44.98787 33033 ft 495 kts 38°
2026-05-05 11:34 -21.28336 -44.96500 33282 ft 493 kts 38°
2026-05-05 11:34 -21.25639 -44.94202 33543 ft 492 kts 38°
2026-05-05 11:35 -21.22986 -44.91948 33788 ft 492 kts 37°
2026-05-05 11:35 -21.20292 -44.89662 33942 ft 493 kts 38°
2026-05-05 11:35 -21.17617 -44.87395 34171 ft 493 kts 37°
2026-05-05 11:35 -21.14886 -44.85081 34318 ft 495 kts 38°
2026-05-05 11:36 -21.12187 -44.82796 34519 ft 495 kts 37°
2026-05-05 11:36 -21.09520 -44.80537 34765 ft 494 kts 37°
2026-05-05 11:36 -21.06800 -44.78235 34931 ft 495 kts 37°
2026-05-05 11:36 -21.04129 -44.75982 35190 ft 493 kts 37°
2026-05-05 11:37 -21.01379 -44.73749 35402 ft 493 kts 35°
2026-05-05 11:37 -20.98588 -44.71585 35532 ft 494 kts 34°
2026-05-05 11:37 -20.95783 -44.69470 35781 ft 493 kts 33°
2026-05-05 11:37 -20.93003 -44.67398 35935 ft 493 kts 33°
2026-05-05 11:38 -20.90177 -44.65292 36132 ft 493 kts 33°
2026-05-05 11:38 -20.87376 -44.63196 36348 ft 492 kts 33°
2026-05-05 11:38 -20.84563 -44.61080 36493 ft 493 kts 34°
2026-05-05 11:38 -20.81756 -44.58958 36647 ft 493 kts 34°
2026-05-05 11:39 -20.78960 -44.56838 36786 ft 493 kts 34°
2026-05-05 11:39 -20.76155 -44.54705 36976 ft 492 kts 34°
2026-05-05 11:39 -20.73362 -44.52579 37118 ft 493 kts 34°
2026-05-05 11:39 -20.70592 -44.50470 37244 ft 493 kts 34°
2026-05-05 11:40 -20.67800 -44.48344 37325 ft 495 kts 34°
2026-05-05 11:40 -20.62171 -44.44060 37316 ft 497 kts 34°
2026-05-05 11:41 -20.56575 -44.39805 37312 ft 492 kts 34°
2026-05-05 11:41 -20.51000 -44.35570 37317 ft 490 kts 34°
2026-05-05 11:42 -20.45454 -44.31363 37316 ft 491 kts 33°
2026-05-05 11:42 -20.39893 -44.27102 37315 ft 493 kts 34°
2026-05-05 11:43 -20.34362 -44.22715 37318 ft 494 kts 35°
2026-05-05 11:43 -20.28899 -44.18337 37320 ft 493 kts 35°
2026-05-05 11:44 -20.23410 -44.13956 37322 ft 493 kts 35°
2026-05-05 11:44 -20.17927 -44.09605 37323 ft 493 kts 34°
2026-05-05 11:45 -20.12358 -44.05260 37328 ft 494 kts 32°
2026-05-05 11:45 -20.06323 -44.01927 37326 ft 485 kts 13°
2026-05-05 11:46 -19.99776 -44.00436 37316 ft 480 kts
2026-05-05 11:46 -19.93156 -43.99467 37309 ft 478 kts
2026-05-05 11:47 -19.86582 -43.98462 37305 ft 477 kts
2026-05-05 11:47 -19.79991 -43.97343 37301 ft 478 kts
2026-05-05 11:48 -19.70140 -43.95581 37294 ft 480 kts
2026-05-05 11:48 -19.63543 -43.94387 37294 ft 480 kts
2026-05-05 11:49 -19.56943 -43.93191 37291 ft 479 kts
2026-05-05 11:49 -19.50410 -43.92010 37290 ft 478 kts
2026-05-05 11:50 -19.43813 -43.90821 37294 ft 478 kts
2026-05-05 11:50 -19.37249 -43.89640 37294 ft 478 kts
2026-05-05 11:51 -19.30702 -43.88462 37296 ft 477 kts
2026-05-05 11:51 -19.24142 -43.87281 37295 ft 476 kts
2026-05-05 11:52 -19.17646 -43.86113 37300 ft 476 kts
2026-05-05 11:52 -19.11084 -43.84936 37300 ft 477 kts
2026-05-05 11:53 -19.04520 -43.83761 37302 ft 478 kts
2026-05-05 11:53 -18.97952 -43.82584 37309 ft 477 kts
2026-05-05 11:54 -18.91395 -43.81408 37309 ft 475 kts
2026-05-05 11:54 -18.84878 -43.80241 37318 ft 475 kts
2026-05-05 11:55 -18.78353 -43.79075 37322 ft 476 kts
2026-05-05 11:55 -18.71816 -43.77908 37327 ft 476 kts
2026-05-05 11:56 -18.65267 -43.76739 37329 ft 475 kts
2026-05-05 11:56 -18.58770 -43.75580 37328 ft 475 kts
2026-05-05 11:57 -18.52229 -43.74414 37329 ft 475 kts
2026-05-05 11:57 -18.45685 -43.73249 37328 ft 477 kts
2026-05-05 11:58 -18.39131 -43.72084 37337 ft 477 kts
2026-05-05 11:58 -18.32593 -43.70921 37338 ft 476 kts
2026-05-05 11:59 -18.26071 -43.69761 37342 ft 475 kts
2026-05-05 11:59 -18.19535 -43.68601 37339 ft 475 kts
2026-05-05 12:00 -18.13011 -43.67444 37341 ft 475 kts
2026-05-05 12:00 -18.06511 -43.66042 37335 ft 477 kts 11°
2026-05-05 12:01 -18.00125 -43.64090 37330 ft 478 kts 14°
2026-05-05 12:01 -17.93749 -43.61991 37328 ft 479 kts 13°
2026-05-05 12:02 -17.87358 -43.59936 37331 ft 481 kts 13°
2026-05-05 12:02 -17.80936 -43.57925 37331 ft 481 kts 13°
2026-05-05 12:03 -17.74514 -43.55942 37323 ft 480 kts 12°
2026-05-05 12:03 -17.68065 -43.53962 37319 ft 480 kts 12°
2026-05-05 12:04 -17.61641 -43.51996 37314 ft 480 kts 13°
2026-05-05 12:04 -17.55219 -43.50031 37308 ft 480 kts 13°
2026-05-05 12:05 -17.48814 -43.48072 37310 ft 480 kts 12°
2026-05-05 12:05 -17.42375 -43.46105 37310 ft 480 kts 13°
2026-05-05 12:06 -17.35956 -43.44146 37312 ft 481 kts 13°
2026-05-05 12:06 -17.29516 -43.42182 37316 ft 481 kts 13°
2026-05-05 12:07 -17.23073 -43.40218 37302 ft 479 kts 13°
2026-05-05 12:07 -17.16715 -43.38279 37295 ft 477 kts 13°
2026-05-05 12:08 -17.10293 -43.36324 37293 ft 479 kts 13°
2026-05-05 12:08 -17.03876 -43.34373 37292 ft 480 kts 12°
2026-05-05 12:09 -16.97476 -43.32427 37291 ft 479 kts 12°
2026-05-05 12:09 -16.91086 -43.30485 37290 ft 478 kts 12°
2026-05-05 12:10 -16.84683 -43.28542 37286 ft 479 kts 12°
2026-05-05 12:10 -16.78271 -43.26598 37282 ft 480 kts 12°
2026-05-05 12:11 -16.71846 -43.24650 37289 ft 480 kts 12°
2026-05-05 12:11 -16.65413 -43.22701 37298 ft 479 kts 12°
2026-05-05 12:12 -16.59026 -43.20768 37297 ft 479 kts 12°
2026-05-05 12:12 -16.52579 -43.18818 37295 ft 481 kts 12°
2026-05-05 12:13 -16.46156 -43.16876 37290 ft 481 kts 12°
2026-05-05 12:13 -16.39730 -43.14934 37287 ft 481 kts 12°
2026-05-05 12:14 -16.33300 -43.12993 37284 ft 480 kts 12°
2026-05-05 12:14 -16.26869 -43.11053 37273 ft 480 kts 12°
2026-05-05 12:15 -16.20404 -43.09105 37271 ft 481 kts 12°
2026-05-05 12:15 -16.13973 -43.07320 37263 ft 478 kts
2026-05-05 12:16 -16.07409 -43.05978 37271 ft 476 kts
2026-05-05 12:16 -16.00905 -43.04779 37285 ft 476 kts
2026-05-05 12:17 -15.94398 -43.03528 37282 ft 477 kts
2026-05-05 12:17 -15.87806 -43.02206 37281 ft 478 kts
2026-05-05 12:18 -15.81286 -43.00871 37277 ft 478 kts
2026-05-05 12:18 -15.74781 -42.99533 37273 ft 478 kts
2026-05-05 12:19 -15.68233 -42.98186 37271 ft 477 kts
2026-05-05 12:19 -15.61707 -42.96846 37267 ft 478 kts
2026-05-05 12:20 -15.55169 -42.95505 37265 ft 476 kts
2026-05-05 12:20 -15.48681 -42.94173 37262 ft 474 kts
2026-05-05 12:21 -15.42214 -42.92848 37266 ft 475 kts
2026-05-05 12:21 -15.35692 -42.91514 37262 ft 477 kts
2026-05-05 12:22 -15.29160 -42.90177 37269 ft 477 kts
2026-05-05 12:22 -15.22668 -42.88847 37270 ft 475 kts
2026-05-05 12:23 -15.16173 -42.87519 37262 ft 475 kts
2026-05-05 12:23 -15.09692 -42.86195 37260 ft 474 kts
2026-05-05 12:24 -15.03187 -42.84868 37265 ft 474 kts
2026-05-05 12:24 -14.96692 -42.83544 37258 ft 475 kts
2026-05-05 12:25 -14.90202 -42.82221 37252 ft 475 kts
2026-05-05 12:25 -14.83695 -42.80895 37246 ft 475 kts
2026-05-05 12:26 -14.77187 -42.79570 37239 ft 475 kts
2026-05-05 12:26 -14.70710 -42.78252 37232 ft 476 kts
2026-05-05 12:27 -14.64221 -42.76932 37234 ft 474 kts
2026-05-05 12:27 -14.57713 -42.75607 37230 ft 475 kts
2026-05-05 12:28 -14.51185 -42.74283 37225 ft 477 kts
2026-05-05 12:28 -14.44650 -42.72957 37230 ft 478 kts
2026-05-05 12:29 -14.38127 -42.71633 37223 ft 478 kts
2026-05-05 12:29 -14.31611 -42.70311 37216 ft 477 kts
2026-05-05 12:30 -14.25061 -42.68982 37218 ft 476 kts
2026-05-05 12:30 -14.18566 -42.67667 37221 ft 477 kts
2026-05-05 12:31 -14.12025 -42.66345 37219 ft 478 kts
2026-05-05 12:31 -14.05481 -42.65019 37214 ft 477 kts
2026-05-05 12:32 -13.98954 -42.63699 37214 ft 478 kts
2026-05-05 12:32 -13.92425 -42.62381 37219 ft 479 kts
2026-05-05 12:33 -13.85840 -42.61051 37221 ft 478 kts
2026-05-05 12:33 -13.79301 -42.59730 37220 ft 477 kts
2026-05-05 12:34 -13.72808 -42.58421 37227 ft 477 kts
2026-05-05 12:34 -13.66269 -42.57102 37219 ft 476 kts
2026-05-05 12:35 -13.59757 -42.55790 37224 ft 475 kts
2026-05-05 12:35 -13.53255 -42.54480 37225 ft 476 kts
2026-05-05 12:36 -13.46770 -42.53175 37228 ft 475 kts
2026-05-05 12:36 -13.40292 -42.51871 37220 ft 474 kts
2026-05-05 12:37 -13.33780 -42.50563 37219 ft 475 kts
2026-05-05 12:37 -13.27264 -42.49257 37216 ft 476 kts
2026-05-05 12:38 -13.20781 -42.47954 37217 ft 475 kts
2026-05-05 12:38 -13.14258 -42.46643 37217 ft 474 kts
2026-05-05 12:39 -13.07803 -42.45348 37219 ft 475 kts
2026-05-05 12:39 -13.01294 -42.44043 37210 ft 474 kts
2026-05-05 12:40 -12.94840 -42.42750 37220 ft 472 kts
2026-05-05 12:40 -12.88393 -42.41459 37218 ft 471 kts
2026-05-05 12:41 -12.81909 -42.40162 37217 ft 472 kts
2026-05-05 12:41 -12.75479 -42.38876 37224 ft 473 kts
2026-05-05 12:42 -12.68995 -42.37579 37228 ft 473 kts
2026-05-05 12:42 -12.62502 -42.36282 37223 ft 473 kts
2026-05-05 12:43 -12.56056 -42.34994 37227 ft 472 kts
2026-05-05 12:43 -12.49596 -42.33702 37223 ft 470 kts
2026-05-05 12:44 -12.43173 -42.32421 37240 ft 469 kts
2026-05-05 12:44 -12.36762 -42.31144 37234 ft 471 kts
2026-05-05 12:45 -12.30300 -42.29857 37241 ft 470 kts
2026-05-05 12:45 -12.23887 -42.28577 37236 ft 470 kts
2026-05-05 12:46 -12.17469 -42.27299 37240 ft 471 kts
2026-05-05 12:46 -12.10999 -42.26011 37232 ft 470 kts
2026-05-05 12:47 -12.04582 -42.24735 37238 ft 470 kts
2026-05-05 12:47 -11.98144 -42.23454 37232 ft 469 kts
2026-05-05 12:48 -11.91737 -42.22181 37229 ft 468 kts
2026-05-05 12:48 -11.85355 -42.20913 37214 ft 469 kts
2026-05-05 12:49 -11.78937 -42.19639 37214 ft 469 kts
2026-05-05 12:49 -11.72505 -42.18361 37208 ft 469 kts
2026-05-05 12:50 -11.66077 -42.17086 37207 ft 469 kts
2026-05-05 12:50 -11.59669 -42.15815 37201 ft 467 kts
2026-05-05 12:51 -11.53283 -42.14549 37200 ft 465 kts
2026-05-05 12:51 -11.46932 -42.13291 37182 ft 466 kts
2026-05-05 12:52 -11.40527 -42.12024 37181 ft 466 kts
2026-05-05 12:52 -11.34132 -42.10759 37183 ft 466 kts
2026-05-05 12:53 -11.27765 -42.09499 37179 ft 465 kts
2026-05-05 12:53 -11.21390 -42.08240 37173 ft 466 kts
2026-05-05 12:54 -11.11809 -42.06346 37162 ft 466 kts
2026-05-05 12:55 -11.05463 -42.05092 37157 ft 464 kts
2026-05-05 12:55 -10.99096 -42.03834 37155 ft 463 kts
2026-05-05 12:56 -10.92748 -42.02583 37153 ft 464 kts
2026-05-05 12:56 -10.86414 -42.01335 37144 ft 465 kts
2026-05-05 12:57 -10.80015 -42.00074 37145 ft 465 kts
2026-05-05 12:57 -10.73639 -41.98817 37141 ft 465 kts
2026-05-05 12:58 -10.67285 -41.97574 37137 ft 466 kts
2026-05-05 12:58 -10.60913 -41.96342 37137 ft 465 kts
2026-05-05 12:59 -10.54567 -41.95118 37130 ft 464 kts
2026-05-05 12:59 -10.48203 -41.93890 37133 ft 464 kts
2026-05-05 13:00 -10.38644 -41.92045 37131 ft 464 kts
2026-05-05 13:01 -10.25951 -41.89593 37133 ft 465 kts
2026-05-05 13:01 -10.19580 -41.88363 37136 ft 464 kts
2026-05-05 13:02 -10.13195 -41.87130 37137 ft 463 kts
2026-05-05 13:02 -10.06873 -41.85910 37142 ft 463 kts
2026-05-05 13:03 -10.00507 -41.84683 37145 ft 463 kts
2026-05-05 13:03 -9.94187 -41.83465 37139 ft 463 kts
2026-05-05 13:04 -9.87839 -41.82241 37132 ft 464 kts
2026-05-05 13:04 -9.81476 -41.81016 37129 ft 464 kts
2026-05-05 13:05 -9.75106 -41.79789 37121 ft 464 kts
2026-05-05 13:05 -9.68777 -41.78573 37122 ft 463 kts
2026-05-05 13:06 -9.62451 -41.77357 37122 ft 462 kts
2026-05-05 13:06 -9.56097 -41.76135 37116 ft 462 kts
2026-05-05 13:07 -9.49775 -41.74920 37122 ft 462 kts
2026-05-05 13:07 -9.43446 -41.73703 37115 ft 463 kts
2026-05-05 13:08 -9.37069 -41.72479 37115 ft 464 kts
2026-05-05 13:08 -9.30715 -41.71259 37107 ft 463 kts
2026-05-05 13:09 -9.24373 -41.70042 37106 ft 463 kts
2026-05-05 13:09 -9.18047 -41.68829 37112 ft 463 kts
2026-05-05 13:10 -9.11729 -41.67617 37109 ft 462 kts
2026-05-05 13:10 -9.05401 -41.66404 37119 ft 462 kts
2026-05-05 13:11 -8.99058 -41.65189 37113 ft 462 kts
2026-05-05 13:11 -8.92731 -41.63976 37101 ft 462 kts
2026-05-05 13:12 -8.86430 -41.62769 37097 ft 462 kts
2026-05-05 13:12 -8.80069 -41.61552 37091 ft 464 kts
2026-05-05 13:13 -8.73710 -41.60336 37095 ft 463 kts
2026-05-05 13:13 -8.67385 -41.59126 37092 ft 463 kts
2026-05-05 13:14 -8.61063 -41.57917 37097 ft 462 kts
2026-05-05 13:14 -8.54691 -41.56699 37098 ft 462 kts
2026-05-05 13:15 -8.48393 -41.55496 37098 ft 462 kts
2026-05-05 13:15 -8.42038 -41.54282 37099 ft 462 kts
2026-05-05 13:16 -8.35733 -41.53078 37092 ft 462 kts
2026-05-05 13:16 -8.29385 -41.51866 37083 ft 462 kts
2026-05-05 13:17 -8.23045 -41.50657 37081 ft 462 kts
2026-05-05 13:17 -8.16728 -41.49451 37073 ft 461 kts
2026-05-05 13:18 -8.10428 -41.48249 37069 ft 462 kts
2026-05-05 13:18 -8.04052 -41.47034 37061 ft 463 kts
2026-05-05 13:19 -7.97725 -41.45829 37059 ft 463 kts
2026-05-05 13:19 -7.91405 -41.44624 37058 ft 461 kts
2026-05-05 13:20 -7.85070 -41.43417 37061 ft 460 kts
2026-05-05 13:20 -7.78763 -41.42216 37060 ft 461 kts
2026-05-05 13:21 -7.72454 -41.41015 37059 ft 461 kts
2026-05-05 13:21 -7.66110 -41.39808 37061 ft 461 kts
2026-05-05 13:22 -7.59818 -41.38612 37062 ft 461 kts
2026-05-05 13:22 -7.53519 -41.37414 37061 ft 460 kts
2026-05-05 13:23 -7.47179 -41.36209 37061 ft 460 kts
2026-05-05 13:23 -7.40899 -41.35016 37061 ft 460 kts
2026-05-05 13:24 -7.34584 -41.33815 37059 ft 459 kts
2026-05-05 13:24 -7.28335 -41.32629 37057 ft 458 kts
2026-05-05 13:25 -7.22018 -41.31429 37053 ft 459 kts
2026-05-05 13:25 -7.15727 -41.30235 37054 ft 459 kts
2026-05-05 13:26 -7.09463 -41.29047 37056 ft 459 kts
2026-05-05 13:26 -7.03166 -41.27852 37057 ft 459 kts
2026-05-05 13:27 -6.96884 -41.26660 37055 ft 457 kts
2026-05-05 13:27 -6.90612 -41.25470 37057 ft 457 kts
2026-05-05 13:28 -6.84358 -41.24284 37068 ft 458 kts
2026-05-05 13:28 -6.78075 -41.23095 37075 ft 459 kts
2026-05-05 13:29 -6.71795 -41.21904 37077 ft 458 kts
2026-05-05 13:29 -6.65482 -41.20707 37080 ft 457 kts
2026-05-05 13:30 -6.59268 -41.19527 37082 ft 457 kts
2026-05-05 13:30 -6.52963 -41.18290 37078 ft 458 kts
2026-05-05 13:31 -6.46712 -41.17042 37088 ft 458 kts
2026-05-05 13:31 -6.40449 -41.15792 37085 ft 457 kts
2026-05-05 13:32 -6.34222 -41.14555 37089 ft 457 kts
2026-05-05 13:32 -6.27937 -41.13311 37092 ft 457 kts
2026-05-05 13:33 -6.21686 -41.12072 37092 ft 457 kts
2026-05-05 13:33 -6.15428 -41.10834 37103 ft 457 kts
2026-05-05 13:34 -6.09200 -41.09602 37108 ft 457 kts
2026-05-05 13:34 -6.02932 -41.08363 37120 ft 456 kts
2026-05-05 13:35 -5.96684 -41.07129 37121 ft 455 kts
2026-05-05 13:35 -5.90459 -41.05899 37124 ft 456 kts
2026-05-05 13:36 -5.84222 -41.04666 37121 ft 457 kts
2026-05-05 13:36 -5.77942 -41.03426 37122 ft 456 kts
2026-05-05 13:37 -5.71732 -41.02199 37117 ft 456 kts
2026-05-05 13:37 -5.65501 -41.00968 37115 ft 456 kts
2026-05-05 13:38 -5.59233 -40.99731 37113 ft 457 kts
2026-05-05 13:38 -5.52973 -40.98497 37106 ft 456 kts
2026-05-05 13:39 -5.46758 -40.97270 37102 ft 455 kts
2026-05-05 13:39 -5.40501 -40.96034 37095 ft 456 kts
2026-05-05 13:40 -5.34281 -40.94808 37094 ft 455 kts
2026-05-05 13:40 -5.28015 -40.93573 37087 ft 456 kts
2026-05-05 13:41 -5.21806 -40.92350 37081 ft 456 kts
2026-05-05 13:41 -5.15543 -40.91115 37081 ft 456 kts
2026-05-05 13:42 -5.09335 -40.89891 37078 ft 456 kts
2026-05-05 13:42 -5.03077 -40.88656 37068 ft 454 kts
2026-05-05 13:43 -4.96885 -40.87436 37065 ft 454 kts
2026-05-05 13:43 -4.90638 -40.86206 37067 ft 454 kts
2026-05-05 13:44 -4.84433 -40.84985 37054 ft 456 kts
2026-05-05 13:44 -4.78205 -40.83759 37021 ft 455 kts
2026-05-05 13:45 -4.75087 -40.83145 36598 ft 454 kts
2026-05-05 13:45 -4.71965 -40.82531 35890 ft 454 kts
2026-05-05 13:45 -4.68879 -40.81923 35121 ft 456 kts
2026-05-05 13:45 -4.65742 -40.81307 34311 ft 458 kts
2026-05-05 13:46 -4.62592 -40.80688 33500 ft 460 kts
2026-05-05 13:46 -4.59468 -40.80074 32956 ft 456 kts
2026-05-05 13:46 -4.56390 -40.79468 32436 ft 453 kts
2026-05-05 13:46 -4.53293 -40.78858 31883 ft 451 kts
2026-05-05 13:47 -4.50189 -40.78247 31288 ft 449 kts
2026-05-05 13:47 -4.47126 -40.77644 30695 ft 448 kts
2026-05-05 13:47 -4.44074 -40.77045 30101 ft 447 kts
2026-05-05 13:47 -4.41045 -40.76450 29520 ft 446 kts
2026-05-05 13:48 -4.37975 -40.75846 28924 ft 444 kts
2026-05-05 13:48 -4.34976 -40.75256 28344 ft 443 kts
2026-05-05 13:48 -4.31944 -40.74660 27766 ft 442 kts 10°
2026-05-05 13:48 -4.28921 -40.74065 27180 ft 441 kts 10°
2026-05-05 13:49 -4.25898 -40.73470 26586 ft 439 kts 10°
2026-05-05 13:49 -4.22899 -40.72880 25985 ft 438 kts 10°
2026-05-05 13:49 -4.19936 -40.72298 25381 ft 437 kts 10°
2026-05-05 13:49 -4.16953 -40.71712 24771 ft 436 kts 10°
2026-05-05 13:50 -4.13963 -40.71124 24157 ft 434 kts 11°
2026-05-05 13:50 -4.11010 -40.70544 23547 ft 432 kts 11°
2026-05-05 13:50 -4.08049 -40.69962 22936 ft 430 kts 11°
2026-05-05 13:50 -4.05123 -40.69388 22327 ft 427 kts 11°
2026-05-05 13:51 -4.02217 -40.68818 21723 ft 425 kts 11°
2026-05-05 13:51 -3.99331 -40.68251 21121 ft 423 kts 12°
2026-05-05 13:51 -3.96448 -40.67685 20521 ft 420 kts 12°
2026-05-05 13:51 -3.93596 -40.67124 19927 ft 417 kts 12°
2026-05-05 13:52 -3.90729 -40.66562 19336 ft 414 kts 12°
2026-05-05 13:52 -3.87930 -40.66013 18744 ft 411 kts 13°
2026-05-05 13:52 -3.85121 -40.65462 18153 ft 408 kts 13°
2026-05-05 13:52 -3.82352 -40.64918 17576 ft 405 kts 13°
2026-05-05 13:53 -3.79587 -40.64375 16997 ft 402 kts 13°
2026-05-05 13:53 -3.76834 -40.63835 16417 ft 398 kts 13°
2026-05-05 13:53 -3.74112 -40.63302 15841 ft 395 kts 13°
2026-05-05 13:53 -3.71456 -40.62779 15292 ft 391 kts 13°
2026-05-05 13:54 -3.68764 -40.62250 14725 ft 388 kts 13°
2026-05-05 13:54 -3.66132 -40.61733 14177 ft 385 kts 14°
2026-05-05 13:54 -3.63490 -40.61214 13605 ft 382 kts 13°
2026-05-05 13:54 -3.60921 -40.60708 13050 ft 379 kts 14°
2026-05-05 13:55 -3.58308 -40.60195 12503 ft 375 kts 14°
2026-05-05 13:55 -3.55774 -40.59698 11962 ft 372 kts 14°
2026-05-05 13:55 -3.53224 -40.59198 11423 ft 368 kts 14°
2026-05-05 13:55 -3.50722 -40.58708 10887 ft 365 kts 14°
2026-05-05 13:56 -3.48238 -40.58221 10383 ft 360 kts 14°
2026-05-05 13:56 -3.45831 -40.57751 10115 ft 342 kts 14°
2026-05-05 13:56 -3.43571 -40.57313 9940 ft 322 kts 14°
2026-05-05 13:56 -3.41388 -40.56887 9518 ft 311 kts 14°
2026-05-05 13:57 -3.39300 -40.56477 9125 ft 302 kts 15°
2026-05-05 13:57 -3.37262 -40.56074 8730 ft 294 kts 15°
2026-05-05 13:57 -3.35277 -40.55683 8373 ft 285 kts 15°
2026-05-05 13:57 -3.33328 -40.55489 8129 ft 279 kts
2026-05-05 13:58 -3.31371 -40.55730 7911 ft 284 kts 353°
2026-05-05 13:58 -3.29436 -40.56155 7664 ft 285 kts 352°
2026-05-05 13:58 -3.27466 -40.56573 7421 ft 284 kts 353°
2026-05-05 13:58 -3.25532 -40.56920 7185 ft 282 kts 355°
2026-05-05 13:59 -3.21660 -40.57529 6720 ft 278 kts 356°
2026-05-05 13:59 -3.19739 -40.57829 6392 ft 278 kts 355°
2026-05-05 14:00 -3.15865 -40.58440 5672 ft 282 kts 355°
2026-05-05 14:00 -3.14579 -40.58644 5418 ft 283 kts 355°
2026-05-05 14:00 -3.11959 -40.59061 4926 ft 284 kts 355°
2026-05-05 14:00 -3.09997 -40.59374 4552 ft 285 kts 354°
2026-05-05 14:01 -3.08031 -40.59686 4216 ft 284 kts 354°
2026-05-05 14:01 -3.06096 -40.59987 4105 ft 274 kts 356°
2026-05-05 14:01 -3.04257 -40.59989 4033 ft 257 kts 17°
2026-05-05 14:01 -3.02689 -40.59273 3868 ft 239 kts 45°
2026-05-05 14:02 -3.01653 -40.58029 3610 ft 229 kts 66°
2026-05-05 14:02 -3.01005 -40.56615 3360 ft 222 kts 70°
2026-05-05 14:02 -3.00375 -40.55211 3109 ft 218 kts 68°
2026-05-05 14:02 -2.99708 -40.53867 2879 ft 213 kts 67°
2026-05-05 14:03 -2.99046 -40.52570 2650 ft 209 kts 68°
2026-05-05 14:03 -2.98400 -40.51284 2472 ft 201 kts 67°
2026-05-05 14:03 -2.97790 -40.50068 2483 ft 192 kts 68°
2026-05-05 14:03 -2.97184 -40.48844 2420 ft 193 kts 68°
2026-05-05 14:04 -2.96599 -40.47673 2247 ft 185 kts 68°
2026-05-05 14:04 -2.96044 -40.46567 2054 ft 171 kts 68°
2026-05-05 14:04 -2.95519 -40.45511 1908 ft 172 kts 68°
2026-05-05 14:04 -2.94990 -40.44448 1750 ft 163 kts 68°
2026-05-05 14:05 -2.94504 -40.43481 1672 ft 153 kts 68°
2026-05-05 14:05 -2.94038 -40.42545 1391 ft 148 kts 68°
2026-05-05 14:05 -2.93587 -40.41642 1184 ft 145 kts 67°
2026-05-05 14:05 -2.93132 -40.40722 991 ft 147 kts 66°
2026-05-05 14:06 -2.92667 -40.39800 834 ft 148 kts 66°
2026-05-05 14:06 -2.92220 -40.38884 654 ft 147 kts 66°
2026-05-05 14:06 -2.91766 -40.37970 467 ft 146 kts 64°
2026-05-05 14:06 -2.91297 -40.37049 230 ft 150 kts 64°
2026-05-05 14:07 -2.90849 -40.36137 104 ft 137 kts 61°
2026-05-05 14:07 -2.90478 -40.35413 98 ft 80 kts 63°
2026-05-05 14:07 -2.90360 -40.35181 98 ft 9 kts 68°
2026-05-05 14:07 -2.90360 -40.35116 98 ft 8 kts 105°
2026-05-05 14:08 -2.90374 -40.35061 98 ft 7 kts 99°
2026-05-05 14:08 -2.90376 -40.35016 98 ft 5 kts 89°
2026-05-05 14:08 -2.90377 -40.34980 98 ft 4 kts 99°
2026-05-05 14:08 -2.90389 -40.34960 98 ft 2 kts 135°
2026-05-05 14:09 -2.90401 -40.34951 98 ft 1 kts 149°
2026-05-05 14:09 -2.90408 -40.34948 98 ft 0 kts 153°
2026-05-05 14:09 -2.90414 -40.34945 98 ft 2 kts 153°
2026-05-05 14:09 -2.90435 -40.34934 98 ft 4 kts 153°
2026-05-05 14:10 -2.90450 -40.34913 98 ft 4 kts 95°
2026-05-05 14:10 -2.90443 -40.34886 98 ft 3 kts 62°
2026-05-05 14:10 -2.90433 -40.34866 98 ft 2 kts 63°
2026-05-05 14:10 -2.90426 -40.34849 98 ft 1 kts 83°
2026-05-05 14:11 -2.90430 -40.34840 98 ft 1 kts 121°
2026-05-05 14:11 -2.90438 -40.34831 98 ft 2 kts 140°
2026-05-05 14:11 -2.90453 -40.34822 98 ft 2 kts 152°
2026-05-05 14:11 -2.90460 -40.34818 98 ft 0 kts 152°
2026-05-05 14:12 -2.90463 -40.34816 98 ft 0 kts 152°
2026-05-05 14:12 -2.90465 -40.34816 98 ft 0 kts 152°
2026-05-05 14:12 -2.90467 -40.34814 98 ft 0 kts 153°
2026-05-05 14:12 -2.90468 -40.34814 98 ft 0 kts 152°